Regional Weather Roundup
Issued by NWS

Home | Current Version | Previous Version | Text Only | Print | Product List | Glossary Off
Versions: 1 2 3 4 5 6 7 8 9 10 11 12 13 14 15 16 17 18 19 20 21 22 23 24 25 26 27 28 29 30 31 32 33 34 35 36 37 38 39 40 41 42 43 44 45 46 47 48 49 50

847
ASUS43 KLMK 121310
RWRKY
KENTUCKY REGIONAL WEATHER ROUNDUP
NATIONAL WEATHER SERVICE LOUISVILLE KY
800 AM EST FRI FEB 12 2016

NOTE "FAIR" INDICATES FEW OR NO CLOUDS BELOW 12,000 FEET
WITH NO SIGNIFICANT WEATHER AND/OR OBSTRUCTIONS TO VISIBILITY.

KYZ001>023-026-027-061>063-070>075-121400-
WESTERN AND SOUTH CENTRAL KENTUCKY

CITY           SKY/WX    TMP DP  RH WIND       PRES   REMARKS
PADUCAH        CLOUDY    29  24  82 NE6       30.21R WCI  23
HENDERSON      CLOUDY    25  21  86 CALM      30.23R VSB 1
OWENSBORO      LGT SNOW  25  24  96 NW7       30.23R VSB 1   WCI  17
HOPKINSVILLE   CLOUDY    28  24  85 NE3       30.19R
BOWLING GREEN  SNOW      28  25  88 CALM      30.21R VSB 1/2
GLASGOW        CLOUDY    26  26 100 CALM      30.17R
$$

KYZ024-025-028>034-038-045-046-053-121400-
NORTH CENTRAL KENTUCKY

CITY           SKY/WX    TMP DP  RH WIND       PRES   REMARKS
LOUISVILLE/SDF CLOUDY    28  12  51 E3        30.18F
LOUISVILLE/LOU CLOUDY    27  14  58 CALM      30.19F
FORT KNOX      FLURRIES  25  16  68 CALM      30.16R
$$

KYZ035>037-039>044-047>052-055>060-089>105-121400-
NORTHEAST KENTUCKY

CITY           SKY/WX    TMP DP  RH WIND       PRES   REMARKS
LEXINGTON      CLOUDY    24  13  62 CALM      30.17S
COVINGTON      CLOUDY    20  12  71 S3        30.17S
FRANKFORT      CLOUDY    25  14  63 CALM      30.18R
$$

KYZ054-064>069-076>088-106>120-121400-
SOUTHEAST KENTUCKY

CITY           SKY/WX    TMP DP  RH WIND       PRES   REMARKS
JACKSON        CLOUDY    21  10  62 CALM      30.14S
LONDON         LGT SNOW  25  14  63 CALM      30.15F
SOMERSET       LGT SNOW  23  19  86 CALM      30.18F VSB 3/4
MIDDLESBORO    CLOUDY    28  21  74 CALM      30.16S
MONTICELLO     LGT SNOW  25  22  88 W6        30.18F FOG     WCI  18
$$





USA.gov is the U.S. government's official web portal to all federal, state and local government web resources and services.